Location: Ernsee
(50.8780°N, 12.0389°E)
Time: 21:55:51
(UTC+00:00)

Cosmos 2058 - Pass Details

Date: 20 January 2020
Orbit: 563 x 583 km, 82.5° (Epoch: 28 February)

Event Time Altitude Azimuth Distance (km) Brightness Sun altitude
Rises 05:47:22 0° 354° (N) 2,812 6.2 -11.8°
Reaches altitude 10° 05:49:39 10° 1° (N) 1,910 5.4 -11.5°
Maximum altitude 05:53:41 43° 74° (ENE) 823 4.2 -10.9°
Drops below altitude 10° 05:57:42 10° 147° (SSE) 1,901 6.4 -10.3°
Sets 05:59:59 0° 154° (SSE) 2,797 7.2 -9.9°
